#timestamp,LO_Frequency,Hit,StdDev 
1539086415.8,286047001.0,N
1539086435.6,286047001.0,N
1539086455.4,286047000.8,N
1539086475.3,286047000.9,N
1539086495.1,286046998.3,N
1539086515.9,286046996.7,N
1539086535.7,286046999.6,N
1539086555.5,286046999.6,N
1539086575.4,286046997.1,N
1539086595.2,286046995.0,Y
1539086615.0,286046996.7,P
1539086615.9,286046996.7,N
1539086635.8,286046999.3,N
1539086655.6,286046999.5,N
1539086675.5,286046999.4,N
1539086695.3,286047000.7,N
1539086715.1,286047002.7,N
1539086735.9,286046998.6,N
1539086755.7,286046998.4,N
1539086775.5,286046999.3,N
1539086795.4,286046997.3,N
1539086815.2,286046998.3,N
1539086835.1,286046998.6,N
1539086836.0,286046998.6,N
1539086855.8,286046998.4,N
1539086875.6,286046998.5,N
1539086895.5,286046998.9,N
1539086915.3,286047000.1,N
1539086935.1,286047001.1,N
1539086955.9,286046999.9,N
1539086975.9,286047002.7,N
1539086995.7,286047000.1,N
1539087015.6,286047002.1,N
1539087035.4,286047002.0,N
1539087055.2,286047000.6,N
1539087075.1,286047000.6,N
1539087076.0,286047000.6,N
1539087095.8,286046998.1,N
1539087115.6,286047000.9,N
1539087135.5,286046998.5,N
1539087155.3,286046998.4,N
1539087175.1,286046999.5,N
1539087195.9,286046996.9,N
1539087215.7,286046999.2,N
1539087235.6,286046998.6,N
1539087255.4,286046999.0,N
1539087275.2,286047000.8,N
1539087295.1,286046998.3,N
1539087296.0,286046998.3,N
1539087315.8,286047001.0,N
1539087335.7,286047000.8,N
1539087355.5,286047000.3,N
1539087375.3,286047001.0,N
1539087395.2,286046998.4,N
1539087415.0,286047000.4,N
1539087415.9,286047000.4,N
1539087435.7,286047000.3,N
1539087455.6,286046999.9,N
1539087475.4,286046998.3,N
1539087495.3,286046999.6,N
1539087515.1,286046998.1,N
1539087516.0,286046998.1,N
1539087535.8,286047000.9,N
1539087555.7,286046999.8,N
1539087575.5,286047002.7,N
1539087595.3,286047000.3,N
1539087615.2,286047001.9,N
1539087635.0,286047001.8,N
1539087635.9,286047001.8,N
1539087655.8,286047001.6,N
1539087675.6,286047004.0,N
1539087695.4,286047002.3,N
1539087715.3,286047002.1,N
1539087735.1,286047002.2,N
1539087755.9,286047002.4,N
1539087775.7,286047002.7,N
1539087795.5,286047001.6,N
1539087815.4,286047001.6,N
1539087835.6,286047002.0,N
1539087855.4,286047003.2,N
1539087875.2,286047003.6,N
1539087895.1,286047001.8,N
1539087896.0,286047001.8,N
1539087915.8,286047001.6,N
1539087935.7,286047001.3,N
1539087955.5,286047002.0,N
1539087975.3,286047001.6,N
1539087995.2,286047002.2,N
1539088015.0,286047002.0,N
1539088015.9,286047002.0,N
1539088035.7,286047001.6,N
1539088055.6,286047002.6,N
1539088075.4,286047003.8,Y
1539088095.3,286047002.4,P
1539088115.1,286047000.1,N
1539088135.8,286047000.9,N
1539088155.7,286047000.7,N
1539088175.5,286047000.6,N
1539088195.3,286047000.3,N
1539088215.2,286047001.0,N
1539088235.0,286046999.0,N
1539088235.9,286046999.0,N
1539088255.8,286046999.0,N
1539088275.6,286046998.4,N
1539088295.4,286046998.9,N
1539088315.3,286046999.3,N
1539088335.1,286046999.4,N
1539088355.7,286046996.5,Y
1539088375.5,286046996.8,P
1539088395.4,286046997.0,N
1539088415.2,286046998.0,N
1539088435.0,286046997.2,N
1539088435.9,286046997.2,N
1539088455.8,286046995.0,Y
1539088475.6,286046998.5,P
1539088495.6,286047000.5,N
1539088515.5,286046998.7,N
1539088535.3,286046998.9,N
1539088555.2,286046998.1,N
1539088575.0,286047000.7,N
1539088575.9,286047000.7,N
1539088595.8,286046999.0,N
1539088615.6,286046998.3,N
1539088635.4,286046999.1,N
1539088655.3,286046998.2,N
1539088675.1,286046999.1,N
1539088695.8,286046999.1,N
1539088715.7,286046996.5,Y
1539088735.5,286046998.2,P
1539088755.4,286047000.3,N
1539088775.2,286047002.3,N
1539088795.0,286047001.2,N
1539088795.9,286047001.2,N
1539088815.8,286047000.9,N
1539088835.6,286047000.2,N
1539088855.4,286047001.2,N
1539088875.3,286046998.3,N
1539088895.1,286047001.1,N
1539088915.9,286047001.1,N
1539088935.7,286046998.2,N
1539088955.5,286046998.5,N
1539088975.4,286047000.9,N
1539088995.2,286046998.6,N
1539089015.0,286046998.5,N
1539089015.9,286046998.5,N
1539089035.8,286046998.1,N
1539089055.6,286046999.2,N
1539089075.5,286046996.5,N
1539089095.3,286046999.4,N
1539089115.1,286046999.5,N
1539089135.9,286047001.2,N
1539089155.7,286046998.2,N
1539089175.5,286046998.7,N
1539089195.4,286046998.4,N
1539089215.8,286046996.9,N
1539089235.7,286046996.5,N
1539089255.5,286046997.0,N
1539089275.3,286046999.1,N
1539089295.2,286046996.8,N
1539089315.0,286046999.0,N
1539089315.9,286046999.0,N
1539089335.8,286046996.7,N
1539089355.6,286046996.6,N
1539089375.4,286046996.6,N
1539089395.3,286046999.5,N
1539089415.1,286046996.6,N
1539089435.8,286046999.6,N
1539089455.7,286046996.8,N
1539089475.5,286046999.6,N
1539089495.4,286046998.8,N
1539089515.2,286046998.6,N
1539089535.0,286046999.0,N
1539089535.9,286046999.0,N
1539089555.8,286046996.8,N
1539089575.6,286046996.8,N
1539089595.5,286046997.9,N
1539089615.3,286046996.7,N
1539089635.1,286046996.7,N
1539089655.9,286046997.1,N
1539089675.7,286046996.7,N
1539089695.6,286046997.3,N
1539089715.4,286046996.9,N
1539089735.2,286046998.9,N
1539089755.1,286046999.2,N
1539089756.0,286046999.2,N
1539089775.8,286046999.6,N
1539089795.7,286046997.9,N
1539089815.5,286046997.0,N
1539089835.3,286046997.3,N
1539089855.2,286046996.9,N
1539089875.0,286046997.3,N
1539089875.9,286046997.3,N
1539089895.7,286046997.0,N
1539089915.6,286046996.6,Y
1539089935.4,286047000.6,P
1539089955.3,286046998.1,N
1539089975.1,286046998.9,N
1539089995.8,286046998.9,N
